Aeroporto :
LOGIN :

Iscrizione | Disclaimer

   EN    FR    IT 

 










Sommario :    VFR   VFR Marginale   IFR   IFR Intensivo   IFR Molto Intensivo
Visibilità : 
Base nubi : 
>= 8 km
>= 3000ft
5 / 8 km
1000 / 3000 ft
1500m / 5 km
500 / 1000 ft
800 / 1500m
200 / 500 ft
< 800m
< 200 ft
Simboli :   Temporali  Nebbia  Neve Forte  Precipitazioni Forti  Vento > 20 kt
SIGMETs :   Varie  Temporali  Ghiacco  Turbolenza  Onda orograficha  Ceneri Vulcaniche






- Altitudine del aeroporto : 545 ft
- Codice IATA : PZY


LZPP - Piešťany

ULTIMO METAR :
  • 282130Z AUTO 33001KT 8000 OVC047/// M02/M02 Q1022

METARs OBSOLETI :
  • 282100Z AUTO 07002KT 6000 OVC048/// M01/M02 Q1022
  • 282030Z AUTO 02002KT 3700 BR OVC052/// M02/M02 Q1022
  • 282000Z 02002KT 8000 BKN046 M02/M02 Q1022
  • 281930Z 07001KT 8000 BKN045 M02/M03 Q1022
  • 281900Z VRB01KT 8000 NSC M02/M03 Q1022

TAF TAF LZPP
Valido dal 28 a 18 ore il 29 a 03 ore UTC


281700Z 2818/2903 VRB02KT 6000 FEW010 SCT030
TEMPO 2818/2821 2000 BR FEW003 BKN014



MetMap, La meteo Aeronautica in un colpo d'occhio ! - Copyright ORBIFLY Dicembre 2007 - Disclaimer

ORBIFLY MET'MAP TEAM :

Programmazione e sviluppo : Alexandra Zaïnal
Concezione : Baudouin d'Aumeries
Aiuto per la programmazione : Marc-Olivier Méhu
Supporto tecnico e logistico : Manuel Goepfert
Aiuto per la traduzione : Arnaldo La Scala

Contatto : metmap@orbifly.com




FONTI E CREDITI :

   NOAA